Date String (YYYY-MM-DD hh:mm:ss) UTC,Instrument flags,Ambient pressure (hPa),Sample flow (lpm),Bypass flow (lpm),Sample temperature (°C),Ambient temperature (°C),ASC tube jacket temperature (°C),LED temperature (°C),Box temperature (°C),Sample RH (%),Span deviation,Mass concentration (μg/m³),Mass concentration (μg/m³),Mass concentration (μg/m³)
DateTimeUTC,F1_M11,P_M11,Q1_M11,Q2_M11,T1_M11,T2_M11,T3_M11,T4_M11,T5_M11,U1_M11,ZSPAN_M11,X0_M11,X2_M11,X1_M11
2022-12-22 10:00:00,,0825.8,4.95,0.00,22.3,21.7,00.0,30.7,23.6,02.9,0002.9,0008.31,0004.34,0003.73
2022-12-22 10:01:00,,0825.6,5.03,0.00,22.3,21.7,00.0,30.7,23.6,02.9,0002.7,0008.42,0004.38,0003.75
2022-12-22 10:02:00,,0825.6,5.03,0.00,22.3,21.7,00.0,30.7,23.6,02.9,0001.9,0008.50,0004.39,0003.73
2022-12-22 10:03:00,,0825.7,4.95,0.00,22.3,21.7,00.0,30.7,23.6,02.9,0002.1,0008.51,0004.40,0003.73
2022-12-22 10:04:00,,0825.9,5.03,0.00,22.3,21.7,00.0,30.7,23.6,02.9,0002.6,0008.58,0004.42,0003.74
2022-12-22 10:05:00,,0825.6,5.02,0.00,22.3,21.8,00.0,30.7,23.6,02.9,0002.8,0008.66,0004.43,0003.75
2022-12-22 10:06:00,,0825.9,4.94,0.00,22.3,21.8,00.0,30.7,23.7,02.9,0002.5,0008.75,0004.44,0003.75
2022-12-22 10:07:00,,0825.9,5.02,0.00,22.3,21.7,00.0,30.7,23.6,02.9,0002.4,0008.79,0004.41,0003.74
2022-12-22 10:08:00,,0825.9,5.03,0.00,22.3,21.7,00.0,30.7,23.6,02.9,0002.0,0008.73,0004.40,0003.74
2022-12-22 10:09:00,,0826.0,4.97,0.00,22.3,21.7,00.0,30.7,23.6,02.9,0001.7,0008.75,0004.41,0003.74
2022-12-22 10:10:00,,0826.0,4.99,0.00,22.3,21.8,00.0,30.7,23.6,02.9,0001.3,0008.85,0004.40,0003.73
2022-12-22 10:11:00,,0825.8,5.03,0.00,22.3,21.7,00.0,30.7,23.6,02.9,0001.8,0008.67,0004.40,0003.72
2022-12-22 10:12:00,,0825.6,4.99,0.00,22.3,21.8,00.0,30.7,23.6,02.9,0002.3,0008.64,0004.38,0003.71
2022-12-22 10:13:00,,0825.6,4.98,0.00,22.3,21.9,00.0,30.7,23.7,02.9,0002.8,0008.50,0004.36,0003.72
2022-12-22 10:14:00,,0825.7,5.02,0.00,22.3,21.9,00.0,30.7,23.7,02.9,0002.5,0008.63,0004.42,0003.74
2022-12-22 10:15:00,,0825.9,4.98,0.00,22.3,22.0,00.0,30.7,23.7,02.9,0002.2,0008.68,0004.43,0003.74
2022-12-22 10:16:00,,0825.9,5.00,0.00,22.3,22.0,00.0,30.8,23.8,02.9,0001.9,0008.56,0004.41,0003.73
2022-12-22 10:17:00,,0825.8,5.03,0.00,22.3,22.1,00.0,30.8,23.8,02.9,0002.2,0008.47,0004.41,0003.73
2022-12-22 10:18:00,,0825.8,4.95,0.00,22.4,22.1,00.0,30.8,23.8,02.9,0002.1,0008.60,0004.42,0003.74
2022-12-22 10:19:00,,0826.0,5.02,0.00,22.4,22.1,00.0,30.8,23.8,02.9,0002.0,0008.67,0004.44,0003.75
2022-12-22 10:20:00,,0825.9,5.01,0.00,22.4,22.1,00.0,30.8,23.8,02.9,0001.8,0008.66,0004.43,0003.75
2022-12-22 10:21:00,,0825.8,4.96,0.00,22.4,22.1,00.0,30.8,23.8,02.9,0002.1,0008.24,0004.44,0003.76
2022-12-22 10:22:00,,0825.9,5.04,0.00,22.4,22.2,00.0,30.8,23.9,02.9,0001.8,0008.20,0004.43,0003.78
2022-12-22 10:23:00,,0825.8,4.99,0.00,22.4,22.2,00.0,30.8,23.9,02.9,0001.7,0008.16,0004.41,0003.78
2022-12-22 10:24:00,,0825.8,4.98,0.00,22.4,22.0,00.0,30.9,23.8,02.9,0001.6,0008.24,0004.43,0003.79
2022-12-22 10:25:00,,0825.9,5.01,0.00,22.2,20.5,00.0,30.9,23.2,02.9,0001.8,0008.21,0004.40,0003.79
2022-12-22 10:26:00,,0825.7,5.00,0.00,21.8,18.8,00.0,30.9,22.5,03.0,0000.0,0008.19,0004.39,0003.79
2022-12-22 10:27:00,,0825.8,5.00,0.00,21.5,18.4,00.0,30.8,22.2,03.0,0000.0,0008.20,0004.37,0003.79
2022-12-22 10:28:00,,0825.8,4.98,0.00,21.5,19.4,00.0,30.7,22.5,03.1,0000.0,0008.36,0004.39,0003.79
2022-12-22 10:29:00,,0825.9,4.99,0.00,21.6,20.3,00.0,30.6,22.8,03.0,0000.0,0008.65,0004.40,0003.80
2022-12-22 10:30:00,,0825.8,5.03,0.00,21.6,20.9,00.0,30.5,22.9,03.0,0000.0,0008.64,0004.42,0003.80
2022-12-22 10:31:00,,0825.7,4.96,0.00,21.7,21.3,00.0,30.5,23.1,03.0,0000.0,0008.57,0004.42,0003.80
2022-12-22 10:32:00,,0825.7,5.02,0.00,21.7,21.5,00.0,30.5,23.2,03.0,0000.0,0008.55,0004.40,0003.79
2022-12-22 10:33:00,,0825.7,5.04,0.00,21.8,21.7,00.0,30.5,23.3,03.0,0000.0,0008.52,0004.39,0003.78
2022-12-22 10:34:00,,0825.7,4.96,0.00,21.8,21.9,00.0,30.5,23.3,03.0,0001.6,0008.55,0004.40,0003.77
2022-12-22 10:35:00,,0825.7,5.04,0.00,21.9,22.0,00.0,30.5,23.4,03.0,0002.2,0008.49,0004.37,0003.74
2022-12-22 10:36:00,,0825.7,4.95,0.00,21.9,22.2,00.0,30.5,23.5,03.0,0001.5,0008.44,0004.35,0003.73
2022-12-22 10:37:00,,0825.7,5.04,0.00,22.0,22.2,00.0,30.5,23.5,03.0,0001.2,0008.42,0004.35,0003.72
2022-12-22 10:38:00,,0825.7,4.99,0.00,21.9,21.2,00.0,30.6,23.2,03.0,0000.2,0008.47,0004.35,0003.72
2022-12-22 10:39:00,,0825.7,4.98,0.00,21.6,19.6,00.0,30.6,22.6,03.0,0000.3,0008.36,0004.30,0003.70
2022-12-22 10:40:00,,0825.9,5.01,0.00,21.4,18.6,00.0,30.5,22.2,03.1,-000.1,0007.84,0004.30,0003.70
2022-12-22 10:41:00,,0825.9,5.03,0.00,21.3,19.5,00.0,30.4,22.4,03.1,-000.7,0007.89,0004.30,0003.69
2022-12-22 10:42:00,,0826.0,5.01,0.00,21.4,20.4,00.0,30.3,22.6,03.1,-001.3,0007.92,0004.30,0003.68
2022-12-22 10:43:00,,0825.7,4.98,0.00,21.5,21.0,00.0,30.3,22.9,03.1,-001.4,0007.91,0004.31,0003.68
2022-12-22 10:44:00,,0825.8,5.05,0.00,21.5,21.4,00.0,30.3,23.0,03.1,-001.1,0007.83,0004.27,0003.68
2022-12-22 10:45:00,,0825.6,4.97,0.00,21.6,21.6,00.0,30.3,23.1,03.1,-001.4,0007.78,0004.25,0003.67
2022-12-22 10:46:00,,0825.6,5.03,0.00,21.6,21.8,00.0,30.3,23.2,03.1,-000.8,0007.84,0004.28,0003.68
2022-12-22 10:47:00,,0825.7,4.96,0.00,21.7,22.0,00.0,30.3,23.3,03.0,-000.6,0007.88,0004.29,0003.67
2022-12-22 10:48:00,,0825.8,5.04,0.00,21.8,22.1,00.0,30.3,23.4,03.0,-000.1,0007.93,0004.29,0003.65
2022-12-22 10:49:00,,0826.0,4.95,0.00,21.8,21.5,00.0,30.4,23.2,03.0,0000.6,0007.86,0004.26,0003.64
2022-12-22 10:50:00,,0825.9,5.02,0.00,21.5,20.1,00.0,30.4,22.6,03.1,0000.8,0007.85,0004.26,0003.64
2022-12-22 10:51:00,,0825.8,5.02,0.00,21.3,19.0,00.0,30.4,22.2,03.1,0000.5,0007.87,0004.26,0003.62
2022-12-22 10:52:00,,0825.6,5.00,0.00,21.2,19.5,00.0,30.3,22.3,03.1,0000.6,0008.12,0004.23,0003.60
2022-12-22 10:53:00,,0825.7,4.96,0.00,21.3,20.4,00.0,30.2,22.6,03.1,0000.0,0008.31,0004.22,0003.58
2022-12-22 10:54:00,,0825.7,5.02,0.00,21.4,20.9,00.0,30.2,22.8,03.1,0000.3,0008.28,0004.20,0003.57
2022-12-22 10:55:00,,0825.8,4.98,0.00,21.4,21.4,00.0,30.2,23.0,03.1,0000.8,0008.39,0004.24,0003.56
2022-12-22 10:56:00,,0825.8,5.01,0.00,21.5,21.7,00.0,30.2,23.1,03.1,0000.8,0008.42,0004.24,0003.55
2022-12-22 10:57:00,,0825.7,5.00,0.00,21.6,22.0,00.0,30.2,23.2,03.1,0000.8,0008.32,0004.20,0003.54
2022-12-22 10:58:00,,0826.0,4.98,0.00,21.6,21.3,00.0,30.2,23.0,03.1,0000.7,0008.25,0004.17,0003.54
2022-12-22 10:59:00,,0826.1,5.03,0.00,21.4,19.5,00.0,30.2,22.4,03.1,0000.3,0008.15,0004.15,0003.55
